Flag for Canada Weather past 2 weeks in Campbell River, British Columbia, Canada

Now
46 °F

Passing clouds.


Feels Like: 46 °F
Forecast: 45 / 52 °F
Wind: No wind

Location: Comox

Current Time: Oct 23, 2014 at 1:21:14 AM

Latest Report: Oct 23, 2014 at 1:00 AM


Visibility: 20 mi

Pressure: 29.59 "Hg

Humidity: 100%

Dew point: 46 °F

Location of Campbell RiverLocation

Historic Weather in Campbell River — Graph

°F

Campbell River temperature yesterday

Maximum temperature yesterday: 55 °F (at 2:00 PM)
Minimum temperature yesterday: 48 °F (at 9:00 PM)
Average temperature yesterday: 52 °F

Past Weeks' High & Low Weather Summary

 TemperatureHumidityPressure
High61 °F (Oct 8, 5:00 PM)100% (Oct 8, 11:00 AM)30.20 "Hg (Oct 8, 11:00 AM)
Low46 °F (Oct 11, 3:00 AM)72% (Oct 11, 3:00 PM)29.39 "Hg (Oct 22, 1:00 AM)
Average54 °F95%29.80 "Hg
* Reported Midnight between Oct 7 and Oct 8 — Midnight between Oct 22 and Oct 23, Campbell River, Weather by CustomWeather, © 2014

Note: Actual official high and low records may vary slightly from our data, if they occured in-between our weather recording intervals... More about our weather records

Advertising

Campbell River weather history for previous 24 hours

 ConditionsComfort  
Time TempWeatherWind HumidityBarometerVisibility
12:00 AM
Oct 23
46 °FPartly cloudy.5 mph100%29.55 "Hg20 mi
11:51 PM
Oct 22
N/APartly cloudy.3 mphN/AN/A20 mi
11:00 PM48 °FSprinkles. Mostly cloudy.2 mph100%29.53 "Hg12 mi
10:00 PM48 °FSprinkles. Low clouds.2 mph100%29.51 "Hg12 mi
9:00 PM48 °FSprinkles. Low clouds.2 mph100%29.49 "Hg10 mi
8:00 PM50 °FSprinkles. Low clouds.5 mph94%29.50 "Hg10 mi
7:00 PM50 °FSprinkles. More clouds than sun.2 mph100%29.51 "Hg20 mi
6:00 PM52 °FSprinkles. Fog.6 mph100%29.54 "Hg3 mi
5:00 PM52 °FSprinkles. Low clouds.12 mph100%29.54 "Hg15 mi
4:00 PM54 °FMostly cloudy.13 mph94%29.55 "Hg20 mi
3:00 PM55 °FMostly cloudy.21 mph88%29.57 "Hg12 mi
2:00 PM55 °FSprinkles. Mostly cloudy.12 mph94%29.59 "Hg12 mi
1:00 PM54 °FSprinkles. Overcast.7 mph94%29.62 "Hg12 mi
12:00 PM54 °FBroken clouds.15 mph94%29.60 "Hg20 mi
11:00 AM54 °FPartly sunny.No wind88%29.60 "Hg20 mi
10:00 AM54 °FPassing clouds.No wind94%29.60 "Hg20 mi
9:00 AM50 °FFog.No wind100%29.59 "Hg12 mi
8:00 AM50 °FFog.3 mph100%29.57 "Hg1 mi
7:00 AM50 °FPassing clouds.5 mph100%29.56 "Hg20 mi
6:00 AM52 °FPassing clouds.6 mph100%29.52 "Hg20 mi
5:00 AM52 °FPassing clouds.10 mph100%29.50 "Hg20 mi
4:00 AM54 °FFog.15 mph94%29.46 "Hg5 mi
3:00 AM52 °FSprinkles. Fog.20 mph100%29.44 "Hg5 mi
2:00 AM52 °FRain showers. Fog.31 mph100%29.42 "Hg2 mi
1:00 AM52 °FRain showers. Fog.38 mph100%29.39 "Hg2 mi
Weather by CustomWeather, © 2014

See weather overviewHow to use our weather pages